Regional Weather Roundup
Issued by NWS Sterling, VA

Home | Current Version | Previous Version | Graphics & Text | Print | Product List | Glossary On
Versions: 1 2 3 4 5 6 7 8 9 10 11 12 13 14 15 16 17 18 19 20 21 22 23 24 25 26 27 28 29 30 31 32 33 34 35 36 37 38 39 40 41 42 43 44 45 46 47 48 49 50
000
ASUS41 KLWX 312310
RWRLWX

REGIONAL WEATHER ROUNDUP
NATIONAL WEATHER SERVICE BALTIMORE MD/WASHINGTON DC
700 PM EDT SUN AUG 31 2014

Note: "FAIR" indicates few or no clouds below 12,000 feet
with no significant weather and/or obstructions to visibility.
 TC=TEMPERATURE CELSIUS

 * =Non NWS site. Station does not report precipitation (e.g. rain,
    snow, etc.), thunder, or fog.

DCZ001-MDZ009-015-VAZ040>042-051-053>054-010000-
WASHINGTON METRO

CITY           SKY/WX    TMP DP  RH WIND       PRES   REMARKS
WASHINGTON NAT MOCLDY    83  69  62 NW12      30.02R THUNDER
DULLES         LGT RAIN  72  71  97 S6        30.02F FOG
ANDREWS AFB    MOCLDY    87  71  58 NW13      30.01R HX  92
QUANTICO       PTCLDY    87  70  56 SW6       30.00R HX  92
LEESBURG*      CLOUDY    75  73  94 S5        30.03S
MANASSAS*      TSTM      77  73  88 NW15G22   30.02R
GAITHERSBURG*  CLOUDY    73  72  94 S5        30.07S

$$

MDZ006>007-011-014-010000-
BALTIMORE METRO

CITY           SKY/WX    TMP DP  RH WIND       PRES   REMARKS
BWI AIRPORT    TSTM      75  72  88 W13       30.01R FOG
MD SCIENCE CTR   N/A     80  72  76 MISG      30.01S
ANNAPOLIS      PTCLDY    82  74  76 S8        29.99R
FORT MEADE*    CLOUDY    79  68  69 NW3       30.03R

$$

MDZ012-015-019>023-010000-
MARYLAND EASTERN SHORE

CITY           SKY/WX    TMP DP  RH WIND       PRES   REMARKS
OCEAN CITY     CLEAR     80  73  79 SW9       30.05S
SALISBURY      CLEAR     85  73  67 S9        30.03S HX  91
BAY BRIDGE AP*   N/A     84  72  65 S13       29.99S
EASTON*        MOCLDY    86  72  62 S13G20    30.04S HX  92

$$

MDZ017>025-010000-
SOUTHERN MARYLAND

CITY           SKY/WX    TMP DP  RH WIND       PRES   REMARKS
PATUXENT RIVER CLEAR     84  72  67 SE8       30.01R
ST INIGOES     CLEAR     83  71  67 SE10      30.01R
LEONARDTOWN*   NOT AVBL

$$

MDZ003>005-010000-
NORTH CENTRAL MARYLAND

CITY           SKY/WX    TMP DP  RH WIND       PRES   REMARKS
FREDERICK*     MOCLDY    77  77 100 CALM      30.04S
HAGERSTOWN APT CLOUDY    82  67  60 NE3       30.02R
WESTMINSTER*   CLOUDY    77  72  83 SW6       30.03R

$$

MDZ501>502-010000-
WESTERN MARYLAND

CITY           SKY/WX    TMP DP  RH WIND       PRES   REMARKS
OAKLAND*       CLOUDY    64 N/A N/A SW7G17    30.14S
CUMBERLAND*    MOCLDY    82  63  51 SW5       30.06S

$$

VAZ025>031-010000-
SHENANDOAH VALLEY

CITY           SKY/WX    TMP DP  RH WIND       PRES   REMARKS
WINCHESTER*    CLOUDY    77  70  78 CALM      30.03S
STAUNTON*      CLOUDY    79  67  67 SW14      30.08R

$$

WVZ021-048>050-054>055-010000-
EASTERN WEST VIRGINIA PANHANDLE

CITY           SKY/WX    TMP DP  RH WIND       PRES   REMARKS
MARTINSBURG    CLOUDY    79  68  69 S5        30.02S
PETERSBURG*    NOT AVBL

$$

VAZ036>039-050-010000-
CENTRAL FOOTHILLS

CITY           SKY/WX    TMP DP  RH WIND       PRES   REMARKS
CHARLOTTESVILL MOCLDY    84  71  65 SW8       30.02S
ORANGE*        MOCLDY    86  70  58 S5        30.03R HX  90

$$

VAZ055>057-010000-
NORTH AND CENTRAL PIEDMONT

CITY           SKY/WX    TMP DP  RH WIND       PRES   REMARKS
FREDERICKSBRG* PTCLDY    89  71  54 S6        30.00R HX  95
STAFFORD*      PTCLDY    85  71  63 S7        30.04S HX  91

$$

NCZ024-NYZ072-PAZ021-071-VAZ022-071-010000-
OTHER REGIONAL OBSERVATIONS

CITY           SKY/WX    TMP DP  RH WIND       PRES   REMARKS
NEW YORK CITY  PTCLDY    76  73  91 CALM      30.01R FOG
PHILADELPHIA   TSTM      73  71  93 SE6       30.01F
PITTSBURGH     CLOUDY    74  69  85 SW8       30.02F
ROANOKE        MOCLDY    83  66  56 W6        30.10S
RICHMOND       MOCLDY    88  69  53 S16       30.02S HX  92
RALEIGH        PTCLDY    88  69  53 S7        30.07R HX  92

$$

ANZ530>537-010000-
MARINE OBSERVATIONS

STATION/POSITION TIME  TEMP    WIND        PRES
                       AIR SEA DIR/SP/G
                 (UTC) (F)     (DEG/KT/KT) (MB)
THOMAS PT LIGHT  2300   81 79  180/ 17/ 20 1016.5R
BALT KEY BRIDGE  2300          290/  7/  8 1015.7R
COVE POINT       2300   80     180/ 18/ 19 1015.9S
LEWISETTA        2300   87 79  200/  6/  8 1015.9S
SOLOMONS ISLAND  2300      80                N/A
PINEY POINT      2300          220/  8/  9   N/A

$$



USA.gov is the U.S. government's official web portal to all federal, state and local government web resources and services.